Change the Weather History Date:

Saturday, October 13, 2012

  Actual Average (KAPA) Record (KAPA)
Temperature  
Mean Temperature 40 °F -  
Max Temperature 48 °F 64 °F 78 °F (1996)
Min Temperature 32 °F 35 °F 28 °F (1997)
Degree Days  
Heating Degree Days 25    
Moisture  
Dew Point 30 °F    
Average Humidity 70    
Maximum Humidity 93    
Minimum Humidity 40    
Precipitation  
Precipitation 0.10 in - - ()
Sea Level Pressure  
Sea Level Pressure 30.00 in    
Wind  
Wind Speed 11 mph (NW)    
Max Wind Speed 23 mph    
Max Gust Speed 34 mph    
Visibility 9 miles    
Events Rain    
Averages and records for this station are not official NWS values.
T = Trace of Precipitation, MM = Missing Value Source: NWS Daily Summary

Daily Weather History Graph

Daily Weather History Graph

Search for Another Location

Airport or City:

Trip Planner

Search our weather history database for the weather conditions in past years. The results will help you decide how hot, cold, wet, or windy it might be!

Date:

Astronomy

Oct. 13, 2012 Rise Set
Actual Time 7:06 AM MDT 6:21 PM MDT
Civil Twilight 6:39 AM MDT 6:48 PM MDT
Nautical Twilight 6:08 AM MDT 7:19 PM MDT
Astronomical Twilight 5:37 AM MDT 7:50 PM MDT
Moon 5:00 AM MDT (10/13) 5:06 PM MDT (10/13)
Length of Visible Light 12h 08m
Length of Day
11h 15m
Waning Crescent, 4% of the Moon is Illuminated
Oct 13
Waning Crescent
Oct 15
New
Oct 21
First Quarter
Oct 29
Full
Nov 6
Last Quarter

Hourly Weather History & Observations

Time (MDT) Temp. Windchill Dew Point Humidity Pressure Visibility Wind Dir Wind Speed Gust Speed Precip Events Conditions
4:11 AM 37.4 °F 30.8 °F 24.8 °F 60% 29.93 in 10.0 mi WSW 9.2 mph - N/A   Clear
4:30 AM 35.6 °F 28.6 °F 24.8 °F 65% 29.93 in 10.0 mi WSW 9.2 mph - N/A   Clear
4:33 AM 33.8 °F 25.8 °F 24.8 °F 70% 29.94 in 10.0 mi WSW 10.4 mph - N/A   Clear
4:52 AM 33.8 °F 25.3 °F 24.8 °F 70% 29.93 in 10.0 mi West 11.5 mph - N/A   Clear
5:31 AM 32.0 °F 25.6 °F 23.0 °F 69% 29.93 in 10.0 mi West 6.9 mph - N/A   Clear
5:50 AM 32.0 °F 25.6 °F 23.0 °F 69% 29.94 in 10.0 mi West 6.9 mph - N/A   Clear
6:01 AM 32.0 °F 25.6 °F 23.0 °F 69% 29.94 in 10.0 mi WNW 6.9 mph - N/A   Clear
6:31 AM 32.0 °F 24.8 °F 23.0 °F 69% 29.93 in 10.0 mi NW 8.1 mph - N/A   Clear
7:08 AM 32.0 °F 24.8 °F 23.0 °F 69% 29.92 in 10.0 mi West 8.1 mph - N/A   Clear
7:32 AM 33.8 °F 27.0 °F 23.0 °F 65% 29.92 in 10.0 mi West 8.1 mph - N/A   Clear
8:17 AM 41.0 °F 37.1 °F 24.8 °F 53% 29.94 in 10.0 mi West 5.8 mph - N/A   Mostly Cloudy
8:42 AM 42.8 °F 39.3 °F 24.8 °F 49% 29.95 in 10.0 mi West 5.8 mph - N/A   Overcast
8:56 AM 44.6 °F 42.2 °F 24.8 °F 46% 29.95 in 10.0 mi WNW 4.6 mph - N/A   Overcast
9:16 AM 46.4 °F 42.9 °F 24.8 °F 43% 29.95 in 10.0 mi NW 6.9 mph - N/A   Mostly Cloudy
9:51 AM 46.4 °F 42.4 °F 24.8 °F 43% 29.97 in 10.0 mi NNW 8.1 mph - N/A   Overcast
9:53 AM 46.4 °F 41.9 °F 24.8 °F 43% 29.97 in 10.0 mi NW 9.2 mph - N/A   Overcast
10:13 AM 46.4 °F 43.5 °F 23.0 °F 40% 29.97 in 10.0 mi NW 5.8 mph - N/A   Overcast
10:47 AM 46.4 °F 41.9 °F 24.8 °F 43% 29.96 in 10.0 mi NNW 9.2 mph - N/A   Overcast
11:05 AM 48.2 °F - 26.6 °F 43% 29.96 in 10.0 mi NNW 13.8 mph 19.6 mph N/A   Overcast
11:14 AM 48.2 °F - 26.6 °F 43% 29.96 in 10.0 mi NW 16.1 mph 19.6 mph N/A   Overcast
11:48 AM 46.4 °F 38.7 °F 28.4 °F 50% 29.97 in 10.0 mi NW 20.7 mph 29.9 mph N/A   Overcast
12:00 PM 46.4 °F 39.0 °F 30.2 °F 53% 29.97 in 10.0 mi NW 19.6 mph 28.8 mph N/A   Overcast
12:35 PM 42.8 °F 34.3 °F 33.8 °F 70% 29.97 in 10.0 mi NW 19.6 mph 31.1 mph N/A Rain Rain
12:52 PM 41.0 °F 33.5 °F 33.8 °F 76% 29.97 in 10.0 mi NNW 13.8 mph 21.9 mph N/A Rain Light Rain
1:15 PM 42.8 °F 34.8 °F 33.8 °F 70% 29.97 in 10.0 mi NNW 17.3 mph 23.0 mph N/A Rain Light Rain
1:42 PM 41.0 °F 31.9 °F 35.6 °F 81% 29.97 in 7.0 mi NNW 19.6 mph 26.5 mph N/A Rain Rain
2:13 PM 39.2 °F 28.7 °F 37.4 °F 93% 29.99 in 7.0 mi NNW 23.0 mph 29.9 mph 0.02 in Rain Rain
2:39 PM 37.4 °F 26.6 °F 35.6 °F 93% 30.00 in 4.0 mi NNW 21.9 mph 28.8 mph 0.05 in Rain Rain
2:53 PM 39.2 °F 29.3 °F 37.4 °F 93% 29.99 in 4.0 mi NW 20.7 mph 25.3 mph 0.07 in Rain Light Rain
3:26 PM 39.2 °F 29.0 °F 37.4 °F 93% 30.01 in 3.0 mi NW 21.9 mph 34.5 mph 0.02 in Rain Rain
4:35 PM 42.8 °F 34.8 °F 39.2 °F 87% 30.03 in 10.0 mi NW 17.3 mph 21.9 mph 0.01 in   Overcast
4:54 PM 44.6 °F 36.6 °F 39.2 °F 81% 30.04 in 10.0 mi NNW 19.6 mph 25.3 mph 0.01 in   Mostly Cloudy
5:31 PM 42.8 °F 35.8 °F 39.2 °F 87% 30.07 in 10.0 mi North 13.8 mph 23.0 mph N/A Rain Light Rain
5:53 PM 42.8 °F 36.6 °F 39.2 °F 87% 30.07 in 10.0 mi North 11.5 mph - N/A   Mostly Cloudy
6:29 PM 42.8 °F 37.0 °F 39.2 °F 87% 30.09 in 10.0 mi WNW 10.4 mph - N/A   Mostly Cloudy
7:13 PM 41.0 °F 34.3 °F 37.4 °F 87% 30.09 in 10.0 mi WNW 11.5 mph - N/A   Mostly Cloudy
7:53 PM 41.0 °F 35.8 °F 35.6 °F 81% 30.11 in 10.0 mi West 8.1 mph - N/A   Clear
8:16 PM 39.2 °F 33.0 °F 35.6 °F 87% 30.12 in 10.0 mi West 9.2 mph - N/A   Clear
8:51 PM 37.4 °F 31.4 °F 35.6 °F 93% 30.13 in 10.0 mi WSW 8.1 mph - N/A   Scattered Clouds
8:56 PM 37.4 °F 32.1 °F 35.6 °F 93% 30.13 in 10.0 mi West 6.9 mph - N/A   Scattered Clouds
10:10 PM 41.0 °F 39.0 °F 35.6 °F 81% 30.17 in 10.0 mi North 3.5 mph - N/A   Overcast
10:15 PM 41.0 °F - 35.6 °F 81% 30.17 in 10.0 mi Calm Calm - N/A   Overcast